Time,TemperatureF,DewpointF,PressureIn,WindDirection,WindDirectionDegrees,WindSpeedMPH,WindSpeedGustMPH,Humidity,HourlyPrecipIn,Conditions,Clouds,dailyrainin,SoftwareType,DateUTC
2013-04-02 00:02:00,43.0,25.0,30.13,NNE,32,0.0,3.0,49,0.00,,,0.00,,2013-04-02 05:02:00,
2013-04-02 00:12:00,43.0,25.0,30.13,NNE,32,0.0,3.0,49,0.00,,,0.00,,2013-04-02 05:12:00,
2013-04-02 00:22:00,43.0,25.0,30.13,NNE,25,0.0,7.0,49,0.00,,,0.00,,2013-04-02 05:22:00,
2013-04-02 00:32:00,42.0,25.0,30.13,NE,36,0.0,3.0,51,0.00,,,0.00,,2013-04-02 05:32:00,
2013-04-02 00:42:00,42.0,25.0,30.13,NE,36,0.0,3.0,51,0.00,,,0.00,,2013-04-02 05:42:00,
2013-04-02 00:52:00,42.0,26.0,30.13,NNE,33,0.0,3.0,52,0.00,,,0.00,,2013-04-02 05:52:00,
2013-04-02 01:02:00,42.0,26.0,30.14,NNE,26,0.0,7.0,52,0.00,,,0.00,,2013-04-02 06:02:00,
2013-04-02 01:12:00,42.0,26.0,30.14,NNE,26,0.0,7.0,52,0.00,,,0.00,,2013-04-02 06:12:00,
2013-04-02 01:22:00,42.0,26.0,30.14,NNE,26,0.0,7.0,52,0.00,,,0.00,,2013-04-02 06:22:00,
2013-04-02 01:32:00,41.0,25.0,30.14,North,11,0.0,6.0,52,0.00,,,0.00,,2013-04-02 06:32:00,
2013-04-02 01:42:00,41.0,25.0,30.14,North,11,0.0,6.0,52,0.00,,,0.00,,2013-04-02 06:42:00,
2013-04-02 01:52:00,41.0,25.0,30.14,North,11,1.0,7.0,52,0.00,,,0.00,,2013-04-02 06:52:00,
2013-04-02 02:02:00,41.0,25.0,30.14,North,4,1.0,8.0,52,0.00,,,0.00,,2013-04-02 07:02:00,
2013-04-02 02:12:00,41.0,25.0,30.14,North,4,1.0,8.0,52,0.00,,,0.00,,2013-04-02 07:12:00,
2013-04-02 02:22:00,41.0,25.0,30.15,NNE,14,0.0,6.0,53,0.00,,,0.00,,2013-04-02 07:22:00,
2013-04-02 02:32:00,41.0,25.0,30.15,North,11,1.0,6.0,53,0.00,,,0.00,,2013-04-02 07:32:00,
2013-04-02 02:42:00,41.0,25.0,30.15,North,11,1.0,6.0,53,0.00,,,0.00,,2013-04-02 07:42:00,
2013-04-02 02:52:00,41.0,25.0,30.16,NNE,16,1.0,7.0,52,0.00,,,0.00,,2013-04-02 07:52:00,
2013-04-02 03:02:00,41.0,26.0,30.16,NNE,15,0.0,6.0,54,0.00,,,0.00,,2013-04-02 08:02:00,
2013-04-02 03:13:00,41.0,26.0,30.16,NNE,15,0.0,6.0,54,0.00,,,0.00,,2013-04-02 08:13:00,
2013-04-02 03:22:00,41.0,26.0,30.17,NNE,24,0.0,8.0,55,0.00,,,0.00,,2013-04-02 08:22:00,
2013-04-02 03:32:00,41.0,26.0,30.17,NE,41,0.0,1.0,55,0.00,,,0.00,,2013-04-02 08:32:00,
2013-04-02 03:42:00,41.0,26.0,30.17,NE,41,0.0,1.0,55,0.00,,,0.00,,2013-04-02 08:42:00,
2013-04-02 03:52:00,40.0,25.0,30.17,NE,40,0.0,1.0,55,0.00,,,0.00,,2013-04-02 08:52:00,
2013-04-02 04:02:00,40.0,23.0,30.17,NNE,16,0.0,6.0,51,0.00,,,0.00,,2013-04-02 09:02:00,
2013-04-02 04:12:00,40.0,23.0,30.17,NNE,16,0.0,6.0,51,0.00,,,0.00,,2013-04-02 09:12:00,
2013-04-02 04:22:00,40.0,23.0,30.17,North,11,0.0,6.0,50,0.00,,,0.00,,2013-04-02 09:22:00,
2013-04-02 04:32:00,40.0,23.0,30.16,NNE,28,1.0,6.0,50,0.00,,,0.00,,2013-04-02 09:32:00,
2013-04-02 04:43:00,40.0,23.0,30.16,NNE,28,1.0,6.0,50,0.00,,,0.00,,2013-04-02 09:43:00,
2013-04-02 04:52:00,40.0,23.0,30.16,North,3,0.0,6.0,50,0.00,,,0.00,,2013-04-02 09:52:00,
2013-04-02 05:03:00,40.0,22.0,30.17,NE,36,0.0,5.0,48,0.00,,,0.00,,2013-04-02 10:03:00,
2013-04-02 05:13:00,40.0,22.0,30.17,NE,36,0.0,5.0,48,0.00,,,0.00,,2013-04-02 10:13:00,
2013-04-02 05:23:00,40.0,22.0,30.17,East,86,0.0,3.0,48,0.00,,,0.00,,2013-04-02 10:23:00,
2013-04-02 05:33:00,40.0,23.0,30.17,NNE,18,0.0,2.0,50,0.00,,,0.00,,2013-04-02 10:33:00,
2013-04-02 05:42:00,40.0,23.0,30.17,NNE,18,0.0,2.0,50,0.00,,,0.00,,2013-04-02 10:42:00,
2013-04-02 05:52:00,40.0,23.0,30.18,NNE,17,0.0,3.0,50,0.00,,,0.00,,2013-04-02 10:52:00,
2013-04-02 06:02:00,40.0,21.0,30.18,NE,38,0.0,7.0,47,0.00,,,0.00,,2013-04-02 11:02:00,
2013-04-02 06:12:00,40.0,21.0,30.18,NE,38,0.0,7.0,47,0.00,,,0.00,,2013-04-02 11:12:00,
2013-04-02 06:22:00,40.0,22.0,30.20,NE,34,0.0,4.0,48,0.00,,,0.00,,2013-04-02 11:22:00,
2013-04-02 06:32:00,39.0,20.0,30.20,NE,38,0.0,7.0,47,0.00,,,0.00,,2013-04-02 11:32:00,
2013-04-02 06:43:00,39.0,20.0,30.20,NE,38,0.0,7.0,47,0.00,,,0.00,,2013-04-02 11:43:00,
2013-04-02 06:52:00,38.0,21.0,30.22,NNE,23,0.0,2.0,50,0.00,,,0.00,,2013-04-02 11:52:00,
2013-04-02 07:02:00,38.0,22.0,30.22,NNE,19,0.0,1.0,51,0.00,,,0.00,,2013-04-02 12:02:00,
2013-04-02 07:12:00,38.0,22.0,30.22,NNE,19,0.0,1.0,51,0.00,,,0.00,,2013-04-02 12:12:00,
2013-04-02 07:22:00,38.0,22.0,30.22,North,3,0.0,5.0,52,0.00,,,0.00,,2013-04-02 12:22:00,
2013-04-02 07:32:00,38.0,22.0,30.24,North,358,0.0,1.0,53,0.00,,,0.00,,2013-04-02 12:32:00,
2013-04-02 07:42:00,38.0,22.0,30.24,North,358,0.0,1.0,53,0.00,,,0.00,,2013-04-02 12:42:00,
2013-04-02 07:52:00,38.0,22.0,30.24,North,358,0.0,1.0,53,0.00,,,0.00,,2013-04-02 12:52:00,
2013-04-02 08:02:00,38.0,22.0,30.24,North,10,0.0,2.0,52,0.00,,,0.00,,2013-04-02 13:02:00,
2013-04-02 08:12:00,39.0,22.0,30.24,North,1,0.0,2.0,50,0.00,,,0.00,,2013-04-02 13:12:00,
2013-04-02 08:22:00,39.0,22.0,30.24,North,1,0.0,2.0,50,0.00,,,0.00,,2013-04-02 13:22:00,
2013-04-02 08:33:00,39.0,20.0,30.24,NE,37,1.0,6.0,47,0.00,,,0.00,,2013-04-02 13:33:00,
2013-04-02 08:42:00,39.0,20.0,30.24,NE,37,1.0,6.0,47,0.00,,,0.00,,2013-04-02 13:42:00,
2013-04-02 08:52:00,41.0,22.0,30.24,NE,54,0.0,3.0,46,0.00,,,0.00,,2013-04-02 13:52:00,
2013-04-02 09:02:00,42.0,20.0,30.25,NE,56,2.0,6.0,41,0.00,,,0.00,,2013-04-02 14:02:00,
2013-04-02 09:12:00,42.0,20.0,30.25,NE,56,2.0,6.0,41,0.00,,,0.00,,2013-04-02 14:12:00,
2013-04-02 09:23:00,42.0,20.0,30.25,NE,52,1.0,6.0,41,0.00,,,0.00,,2013-04-02 14:23:00,
2013-04-02 09:32:00,42.0,19.0,30.26,ENE,59,2.0,10.0,39,0.00,,,0.00,,2013-04-02 14:32:00,
2013-04-02 09:42:00,42.0,19.0,30.26,ENE,59,2.0,10.0,39,0.00,,,0.00,,2013-04-02 14:42:00,
2013-04-02 09:52:00,43.0,19.0,30.24,ENE,57,3.0,11.0,38,0.00,,,0.00,,2013-04-02 14:52:00,
2013-04-02 10:02:00,43.0,20.0,30.25,NE,53,2.0,7.0,39,0.00,,,0.00,,2013-04-02 15:02:00,
2013-04-02 10:11:00,43.0,20.0,30.25,NE,53,2.0,7.0,39,0.00,,,0.00,,2013-04-02 15:11:00,
2013-04-02 10:22:00,44.0,21.0,30.25,ENE,63,2.0,8.0,39,0.00,,,0.00,,2013-04-02 15:22:00,
2013-04-02 10:33:00,44.0,18.0,30.25,ENE,62,2.0,11.0,35,0.00,,,0.00,,2013-04-02 15:33:00,
2013-04-02 10:42:00,44.0,18.0,30.25,ENE,62,2.0,11.0,35,0.00,,,0.00,,2013-04-02 15:42:00,
2013-04-02 10:57:00,44.0,17.0,30.25,North,9,2.0,11.0,33,0.00,,,0.00,,2013-04-02 15:57:00,
2013-04-02 11:03:00,44.0,18.0,30.25,North,10,2.0,10.0,35,0.00,,,0.00,,2013-04-02 16:03:00,
2013-04-02 11:13:00,44.0,18.0,30.25,North,10,2.0,10.0,35,0.00,,,0.00,,2013-04-02 16:13:00,
2013-04-02 11:24:00,45.0,19.0,30.24,NE,45,1.0,9.0,35,0.00,,,0.00,,2013-04-02 16:24:00,
2013-04-02 11:34:00,44.0,17.0,30.24,NNE,24,1.0,4.0,34,0.00,,,0.00,,2013-04-02 16:34:00,
2013-04-02 11:43:00,44.0,17.0,30.24,NNE,24,1.0,4.0,34,0.00,,,0.00,,2013-04-02 16:43:00,
2013-04-02 11:53:00,44.0,19.0,30.24,North,10,1.0,10.0,36,0.00,,,0.00,,2013-04-02 16:53:00,
2013-04-02 12:04:00,46.0,17.0,30.24,NE,53,1.0,10.0,31,0.00,,,0.00,,2013-04-02 17:04:00,
2013-04-02 12:13:00,46.0,17.0,30.24,NE,53,1.0,10.0,31,0.00,,,0.00,,2013-04-02 17:13:00,
2013-04-02 12:24:00,46.0,18.0,30.23,NNE,31,1.0,6.0,32,0.00,,,0.00,,2013-04-02 17:24:00,
2013-04-02 12:34:00,46.0,16.0,30.22,North,351,2.0,8.0,30,0.00,,,0.00,,2013-04-02 17:34:00,
2013-04-02 12:43:00,46.0,16.0,30.22,North,351,2.0,8.0,30,0.00,,,0.00,,2013-04-02 17:43:00,
2013-04-02 12:53:00,46.0,17.0,30.22,East,91,1.0,6.0,31,0.00,,,0.00,,2013-04-02 17:53:00,
2013-04-02 13:03:00,47.0,16.0,30.23,NW,318,3.0,12.0,29,0.00,,,0.00,,2013-04-02 18:03:00,
2013-04-02 13:12:00,47.0,16.0,30.23,NW,318,3.0,12.0,29,0.00,,,0.00,,2013-04-02 18:12:00,
2013-04-02 13:23:00,46.0,16.0,30.23,NW,321,2.0,8.0,30,0.00,,,0.00,,2013-04-02 18:23:00,
2013-04-02 13:43:00,46.0,16.0,30.22,North,4,0.0,6.0,29,0.00,,,0.00,,2013-04-02 18:43:00,
2013-04-02 13:54:00,46.0,16.0,30.22,NE,54,0.0,2.0,29,0.00,,,0.00,,2013-04-02 18:54:00,
2013-04-02 14:03:00,46.0,16.0,30.21,NNE,17,0.0,2.0,30,0.00,,,0.00,,2013-04-02 19:03:00,
2013-04-02 14:13:00,46.0,16.0,30.21,NNE,17,0.0,2.0,30,0.00,,,0.00,,2013-04-02 19:13:00,
2013-04-02 14:23:00,46.0,16.0,30.22,NNE,23,0.0,2.0,30,0.00,,,0.00,,2013-04-02 19:23:00,
2013-04-02 14:33:00,46.0,18.0,30.22,NNW,345,0.0,6.0,32,0.00,,,0.00,,2013-04-02 19:33:00,
2013-04-02 14:45:00,46.0,18.0,30.22,NNW,345,0.0,6.0,32,0.00,,,0.00,,2013-04-02 19:45:00,
2013-04-02 14:55:00,46.0,19.0,30.21,NNW,338,1.0,8.0,33,0.00,,,0.00,,2013-04-02 19:55:00,
2013-04-02 15:03:00,45.0,18.0,30.21,NNW,342,2.0,10.0,34,0.00,,,0.00,,2013-04-02 20:03:00,
2013-04-02 15:13:00,45.0,18.0,30.21,NNW,342,2.0,10.0,34,0.00,,,0.00,,2013-04-02 20:13:00,
2013-04-02 15:22:00,46.0,18.0,30.21,North,357,0.0,6.0,32,0.00,,,0.00,,2013-04-02 20:22:00,
2013-04-02 15:33:00,46.0,19.0,30.21,NNW,341,1.0,8.0,34,0.00,,,0.00,,2013-04-02 20:33:00,
2013-04-02 15:43:00,46.0,19.0,30.21,NNW,341,1.0,8.0,34,0.00,,,0.00,,2013-04-02 20:43:00,
2013-04-02 15:54:00,46.0,19.0,30.21,NNW,341,1.0,8.0,34,0.00,,,0.00,,2013-04-02 20:54:00,
2013-04-02 16:03:00,46.0,16.0,30.20,North,8,0.0,6.0,29,0.00,,,0.00,,2013-04-02 21:03:00,
2013-04-02 16:13:00,46.0,16.0,30.20,North,8,0.0,6.0,29,0.00,,,0.00,,2013-04-02 21:13:00,
2013-04-02 16:23:00,46.0,18.0,30.20,NNW,348,0.0,2.0,32,0.00,,,0.00,,2013-04-02 21:23:00,
2013-04-02 16:34:00,46.0,19.0,30.19,NNW,332,0.0,2.0,34,0.00,,,0.00,,2013-04-02 21:34:00,
2013-04-02 16:43:00,46.0,19.0,30.19,NNW,332,0.0,2.0,34,0.00,,,0.00,,2013-04-02 21:43:00,
2013-04-02 16:54:00,46.0,16.0,30.19,NNW,333,0.0,1.0,30,0.00,,,0.00,,2013-04-02 21:54:00,
2013-04-02 17:04:00,46.0,16.0,30.19,NW,319,0.0,2.0,29,0.00,,,0.00,,2013-04-02 22:04:00,
2013-04-02 17:14:00,46.0,16.0,30.19,NW,319,0.0,2.0,29,0.00,,,0.00,,2013-04-02 22:14:00,
2013-04-02 17:24:00,46.0,16.0,30.19,NW,324,1.0,7.0,29,0.00,,,0.00,,2013-04-02 22:24:00,
2013-04-02 17:33:00,46.0,19.0,30.19,NW,311,0.0,1.0,33,0.00,,,0.00,,2013-04-02 22:33:00,
2013-04-02 17:43:00,46.0,19.0,30.19,NW,311,0.0,1.0,33,0.00,,,0.00,,2013-04-02 22:43:00,
2013-04-02 17:53:00,46.0,19.0,30.19,NW,322,0.0,1.0,33,0.00,,,0.00,,2013-04-02 22:53:00,
2013-04-02 18:03:00,46.0,20.0,30.19,NNW,346,0.0,5.0,35,0.00,,,0.00,,2013-04-02 23:03:00,
2013-04-02 18:12:00,46.0,19.0,30.19,North,359,0.0,6.0,33,0.00,,,0.00,,2013-04-02 23:12:00,
2013-04-02 18:23:00,46.0,19.0,30.19,North,359,0.0,6.0,33,0.00,,,0.00,,2013-04-02 23:23:00,
2013-04-02 18:34:00,46.0,19.0,30.18,North,10,0.0,7.0,34,0.00,,,0.00,,2013-04-02 23:34:00,
2013-04-02 18:42:00,46.0,19.0,30.18,North,10,0.0,7.0,34,0.00,,,0.00,,2013-04-02 23:42:00,
2013-04-02 18:54:00,46.0,20.0,30.19,NNW,346,0.0,6.0,35,0.00,,,0.00,,2013-04-02 23:54:00,
2013-04-02 19:03:00,45.0,19.0,30.19,NNW,342,0.0,1.0,35,0.00,,,0.00,,2013-04-03 00:03:00,
2013-04-02 19:13:00,45.0,19.0,30.19,NNW,342,0.0,1.0,35,0.00,,,0.00,,2013-04-03 00:13:00,
2013-04-02 19:24:00,45.0,20.0,30.20,North,0,0.0,0.0,37,0.00,,,0.00,,2013-04-03 00:24:00,
2013-04-02 19:33:00,44.0,22.0,30.20,North,0,0.0,0.0,41,0.00,,,0.00,,2013-04-03 00:33:00,
2013-04-02 19:45:00,44.0,22.0,30.20,North,0,0.0,0.0,41,0.00,,,0.00,,2013-04-03 00:45:00,
2013-04-02 19:55:00,44.0,22.0,30.20,North,0,0.0,0.0,41,0.00,,,0.00,,2013-04-03 00:55:00,
2013-04-02 20:03:00,43.0,24.0,30.20,North,0,0.0,0.0,47,0.00,,,0.00,,2013-04-03 01:03:00,
2013-04-02 20:12:00,43.0,24.0,30.20,North,0,0.0,0.0,47,0.00,,,0.00,,2013-04-03 01:12:00,
2013-04-02 20:22:00,43.0,22.0,30.21,North,0,0.0,0.0,43,0.00,,,0.00,,2013-04-03 01:22:00,
2013-04-02 20:33:00,42.0,21.0,30.21,North,0,0.0,0.0,43,0.00,,,0.00,,2013-04-03 01:33:00,
2013-04-02 20:42:00,42.0,21.0,30.21,North,0,0.0,0.0,43,0.00,,,0.00,,2013-04-03 01:42:00,
2013-04-02 20:53:00,42.0,24.0,30.21,North,0,0.0,0.0,48,0.00,,,0.00,,2013-04-03 01:53:00,
2013-04-02 21:03:00,41.0,23.0,30.21,North,0,0.0,0.0,48,0.00,,,0.00,,2013-04-03 02:03:00,
2013-04-02 21:13:00,41.0,23.0,30.21,North,0,0.0,0.0,48,0.00,,,0.00,,2013-04-03 02:13:00,
2013-04-02 21:23:00,41.0,24.0,30.21,North,0,0.0,0.0,51,0.00,,,0.00,,2013-04-03 02:23:00,
2013-04-02 21:34:00,41.0,20.0,30.22,North,0,0.0,0.0,42,0.00,,,0.00,,2013-04-03 02:34:00,
2013-04-02 21:43:00,41.0,20.0,30.22,North,0,0.0,0.0,42,0.00,,,0.00,,2013-04-03 02:43:00,
2013-04-02 21:52:00,41.0,19.0,30.22,North,0,0.0,0.0,41,0.00,,,0.00,,2013-04-03 02:52:00,
2013-04-02 22:05:00,42.0,22.0,30.22,North,0,0.0,0.0,44,0.00,,,0.00,,2013-04-03 03:05:00,
2013-04-02 22:13:00,42.0,22.0,30.22,North,0,0.0,0.0,44,0.00,,,0.00,,2013-04-03 03:13:00,
2013-04-02 22:23:00,42.0,23.0,30.22,NNW,342,0.0,1.0,46,0.00,,,0.00,,2013-04-03 03:23:00,
2013-04-02 22:37:00,41.0,22.0,30.22,North,0,0.0,0.0,47,0.00,,,0.00,,2013-04-03 03:37:00,
2013-04-02 22:43:00,41.0,22.0,30.22,North,0,0.0,0.0,47,0.00,,,0.00,,2013-04-03 03:43:00,
2013-04-02 22:53:00,41.0,22.0,30.22,North,0,0.0,0.0,46,0.00,,,0.00,,2013-04-03 03:53:00,
2013-04-02 23:03:00,41.0,22.0,30.22,North,0,0.0,0.0,46,0.00,,,0.00,,2013-04-03 04:03:00,
2013-04-02 23:12:00,41.0,22.0,30.22,North,0,0.0,0.0,46,0.00,,,0.00,,2013-04-03 04:12:00,
2013-04-02 23:23:00,41.0,22.0,30.22,North,0,0.0,0.0,46,0.00,,,0.00,,2013-04-03 04:23:00,
2013-04-02 23:33:00,41.0,23.0,30.22,North,0,0.0,0.0,48,0.00,,,0.00,,2013-04-03 04:33:00,
2013-04-02 23:42:00,41.0,23.0,30.22,North,0,0.0,0.0,48,0.00,,,0.00,,2013-04-03 04:42:00,
2013-04-02 23:53:00,40.0,22.0,30.21,North,0,0.0,0.0,48,0.00,,,0.00,,2013-04-03 04:53:00,